KC4LW Weather Reports


Display with metric or nautical units.
time (UTC)temp
F
wind
direction
speed
MPH
gust
MPH
rain 1hr
in
rain 24hr
in
rain mn
in
humidity
%
barometer
mb
20260831114612 77 0 0.0 0.0 0.00 0.00 0.00 99 1016.6
20260831113107 76 0 0.0 1.0 0.00 0.00 0.00 99 1016.5
20260831111603 77 0 0.0 1.0 0.00 0.00 0.00 99 1016.3
20260831110108 77 0 0.0 0.0 0.00 0.00 0.00 99 1016.2
20260831104600 77 0 0.0 0.0 0.00 0.00 0.00 99 1016.1
20260831103101 78 0 0.0 2.0 0.00 0.00 0.00 99 1016.1
20260831101603 78 0 0.0 0.0 0.00 0.00 0.00 99 1016.1
20260831094602 78 0 0.0 0.0 0.00 0.00 0.00 99 1015.8
20260831093103 78 0 0.0 0.0 0.00 0.00 0.00 99 1015.7
20260831091610 78 0 0.0 0.0 0.00 0.00 0.00 99 1015.7
20260831090059 78 0 0.0 0.0 0.00 0.00 0.00 99 1015.7
20260831084603 77 0 0.0 0.0 0.00 0.00 0.00 98 1015.8
20260831083057 78 0 0.0 0.0 0.00 0.00 0.00 98 1015.7
20260831081602 77 0 0.0 0.0 0.00 0.00 0.00 98 1015.7
20260831080056 78 0 0.0 0.0 0.00 0.00 0.00 98 1015.7
20260831074600 78 0 0.0 0.0 0.00 0.00 0.00 98 1015.7
20260831073109 78 0 0.0 0.0 0.00 0.00 0.00 98 1015.8
20260831071601 78 0 0.0 1.0 0.00 0.00 0.00 98 1015.9
20260831064600 78 0 0.0 0.0 0.00 0.00 0.00 97 1016.1
20260831063102 78 0 0.0 0.0 0.00 0.00 0.00 97 1016.2
20260831061610 79 0 0.0 1.0 0.00 0.00 0.00 97 1016.4
20260831060111 78 0 0.0 1.0 0.00 0.00 0.00 96 1016.5
20260831054600 78 0 0.0 2.0 0.00 0.00 0.00 96 1016.5
20260831053103 78 0 0.0 1.0 0.00 0.00 0.00 96 1016.6
20260831051606 78 0 0.0 1.0 0.00 0.00 0.00 96 1016.6
20260831044604 79 0 0.0 1.0 0.00 0.00 0.00 95 1016.4
20260831043058 79 0 0.0 1.0 0.00 0.00 0.00 95 1016.6
20260831041644 79 96 0.0 3.0 0.00 0.00 0.00 95 1016.6
20260831040101 79 0 0.0 3.0 0.00 0.00 0.00 95 1016.6
20260831034601 79 0 0.0 3.0 0.00 0.00 0.00 95 1016.6
20260831033100 79 0 0.0 2.0 0.00 0.00 0.00 95 1016.8
20260831031604 79 0 0.0 2.0 0.00 0.00 0.00 94 1017.0
20260831030105 78 0 0.0 1.0 0.00 0.00 0.00 94 1017.5
20260831024618 78 0 0.0 1.0 0.00 0.00 0.00 93 1017.4
20260831023058 79 0 0.0 2.0 0.00 0.00 0.00 94 1017.5
20260831021601 79 0 0.0 2.0 0.00 0.00 0.00 94 1017.4
20260831020057 79 98 0.0 3.0 0.00 0.00 0.00 94 1017.6
20260831014606 79 0 0.0 1.0 0.00 0.00 0.00 94 1017.1
20260831013109 80 0 0.0 1.0 0.00 0.00 0.00 94 1017.2
20260831011600 80 0 0.0 1.0 0.00 0.00 0.00 93 1017.4
20260831010121 80 0 0.0 2.0 0.00 0.00 0.00 93 1017.4
20260831004604 80 82 0.0 2.0 0.00 0.00 0.00 93 1017.1
20260831003103 80 86 0.0 3.0 0.00 0.00 0.00 92 1017.2
20260831001606 80 0 0.0 4.0 0.00 0.00 0.00 91 1017.1
20260831000113 81 0 1.0 5.0 0.00 0.00 0.00 90 1017.0
20260830234602 81 79 0.0 3.0 0.00 0.00 0.00 88 1016.7
20260830233102 82 59 0.0 4.0 0.00 0.00 0.00 87 1016.8
20260830231604 82 70 1.0 6.0 0.00 0.00 0.00 84 1017.0
20260830230104 83 0 1.0 6.0 0.00 0.00 0.00 84 1016.4
20260830224604 83 0 0.0 7.0 0.00 0.00 0.00 86 1016.5
20260830223131 82 99 1.0 7.0 0.00 0.00 0.00 87 1016.4
20260830221556 82 70 1.0 7.0 0.00 0.00 0.00 85 1016.1
20260830220105 83 65 2.0 9.0 0.00 0.00 0.00 84 1016.0
20260830214601 83 51 3.0 9.0 0.00 0.00 0.00 84 1016.1
20260830213056 84 97 3.0 9.0 0.00 0.00 0.00 85 1016.2
20260830211555 83 64 4.0 9.0 0.00 0.00 0.00 85 1016.1
20260830210101 84 123 2.0 10.0 0.00 0.00 0.00 87 1016.0
20260830204601 86 80 3.0 10.0 0.00 0.00 0.00 83 1016.1
20260830203102 86 60 2.0 10.0 0.00 0.00 0.00 82 1016.5
20260830201602 86 48 2.0 9.0 0.00 0.00 0.00 83 1016.7
20260830200100 86 116 1.0 8.0 0.00 0.00 0.00 82 1016.9
20260830194609 86 90 3.0 8.0 0.00 0.00 0.00 81 1017.1
20260830193104 86 73 4.0 10.0 0.00 0.00 0.00 79 1017.2
20260830191600 87 62 2.0 9.0 0.00 0.00 0.00 78 1017.2
20260830190057 87 74 2.0 8.0 0.00 0.00 0.00 76 1017.2
20260830184618 88 42 2.0 6.0 0.00 0.00 0.00 76 1017.2
20260830183102 87 111 2.0 8.0 0.00 0.00 0.00 75 1017.1
20260830181556 88 32 1.0 6.0 0.00 0.00 0.00 75 1017.3
20260830180100 88 53 2.0 8.0 0.00 0.00 0.00 75 1017.7
20260830174605 88 5 1.0 6.0 0.00 0.00 0.00 75 1017.8
20260830173107 87 74 2.0 8.0 0.00 0.00 0.00 76 1017.8
20260830171640 87 114 3.0 9.0 0.00 0.00 0.00 76 1017.7
20260830170059 88 24 2.0 7.0 0.00 0.00 0.00 74 1017.8
20260830164604 88 78 1.0 7.0 0.00 0.00 0.00 74 1018.2
20260830163107 88 67 2.0 5.0 0.00 0.00 0.00 74 1018.3
20260830161611 88 74 1.0 4.0 0.00 0.00 0.00 73 1018.6
20260830160108 88 28 1.0 3.0 0.00 0.00 0.00 71 1018.6
20260830154559 87 49 1.0 7.0 0.00 0.00 0.00 78 1018.7
20260830153103 86 352 1.0 3.0 0.00 0.00 0.00 77 1018.8
20260830151610 86 87 0.0 4.0 0.00 0.00 0.00 77 1018.6
20260830150109 86 94 1.0 4.0 0.00 0.00 0.00 77 1018.7
20260830144600 86 103 1.0 6.0 0.00 0.00 0.00 78 1018.7
20260830143111 86 62 0.0 2.0 0.00 0.00 0.00 81 1018.5
20260830141604 85 294 0.0 3.0 0.00 0.00 0.00 82 1018.5
20260830134559 80 0 0.0 2.0 0.00 0.00 0.00 93 1018.6
20260830133108 79 0 0.0 1.0 0.00 0.00 0.00 95 1018.6
20260830131606 79 0 0.0 2.0 0.00 0.00 0.00 97 1018.6
20260830130110 78 0 0.0 1.0 0.00 0.00 0.00 99 1018.6
20260830124600 77 0 0.0 1.0 0.00 0.00 0.00 99 1018.3
20260830123101 77 0 0.0 2.0 0.00 0.00 0.00 99 1018.2
20260830121604 76 0 0.0 0.0 0.00 0.00 0.00 98 1018.1